Tracking 33850 objects as of 19-Apr-2026
HD Live streaming from Space Station
objects crossing your sky now

TELSTAR 11 (ORION 1)

Track TELSTAR 11 (ORION 1) now!
TELSTAR 11 (ORION 1) is classified as:


NORAD ID: 23413
Int'l Code: 1994-079A
Perigee: 36,169.0 km
Apogee: 36,379.8 km
Inclination: 13.8 °
Period: 1,460.7 minutes
Semi major axis: 42645 km
RCS: 10.4526 m2 (large)
Launch date: November 29, 1994
Source: United States (US)
Launch site: AIR FORCE EASTERN TEST RANGE (AFETR)

34 Ku-band; Europe, United States to Rockies, parts of Canada and Mexico; broadcast, business, high-speed Internet.
Your satellite tracking list
Your tracking list is empty




NASA's NSSDC Master Catalog

Two Line Element Set (TLE):
1 23413U 94079A   26107.94280990 -.00000133  00000-0  00000-0 0  9997
2 23413  13.7736  17.1918 0024720  38.0793 146.5968  0.98581355113361
Source of the keplerian elements: AFSPC